Retour au catalogue

STARLINK-30578

ActifCommunicationsVLEO
NORAD 58093·PAYLOAD·🇺🇸 United States

Lancé Oct 18, 2023 depuis Cape Canaveral Space Force Station

Loading…

Prochains Passages (prochaines 24 heures)

TLE

FraisSource: CelesTrak SupGP

Époque: Sep 15, 2026, 02:29 UTC

1 58093C 23160U   26258.10395833  .00014702  00000+0  53236-3 0  2585
2 58093  42.9994  88.0339 0001566 273.9890 164.3812 15.27579495    11

Suivez STARLINK-30578 en temps réel avec AllMySat

Download on the App Store